Regional Weather Roundup
Issued by NWS

Home | Current Version | Previous Version | Graphics & Text | Print | Product List | Glossary On
Versions: 1 2 3 4 5 6 7 8 9 10 11 12 13 14 15 16 17 18 19 20 21 22 23 24 25 26 27 28 29 30 31 32 33 34 35 36 37 38 39 40 41 42 43 44 45 46 47 48 49 50
501
ASUS43 KLMK 090202
RWRKY
KENTUCKY REGIONAL WEATHER ROUNDUP
NATIONAL WEATHER SERVICE LOUISVILLE KY
900 PM EST MON FEB 08 2016

NOTE "FAIR" INDICATES FEW OR NO CLOUDS BELOW 12,000 FEET
WITH NO SIGNIFICANT WEATHER AND/OR OBSTRUCTIONS TO VISIBILITY.

KYZ001>023-026-027-061>063-070>075-090300-
WESTERN AND SOUTH CENTRAL KENTUCKY

CITY           SKY/WX    TMP DP  RH WIND       PRES   REMARKS
PADUCAH        LGT SNOW  28  20  71 NW8       29.94S WCI  20
HENDERSON      CLOUDY    25  18  74 W10       29.92S WCI  15
OWENSBORO      LGT SNOW  24  21  88 NW15      29.91R FOG     WCI  11
HOPKINSVILLE   FLURRIES  28  22  79 NW13      29.91R WCI  18
BOWLING GREEN  LGT SNOW  29  23  78 NW12G22   29.89R WCI  19
GLASGOW        NOT AVBL
$$

KYZ024-025-028>034-038-045-046-053-090300-
NORTH CENTRAL KENTUCKY

CITY           SKY/WX    TMP DP  RH WIND       PRES   REMARKS
LOUISVILLE/SDF CLOUDY    28  22  78 W14       29.82S WCI  17
LOUISVILLE/LOU CLOUDY    28  21  75 W15       29.82S WCI  16
FORT KNOX      CLOUDY    26  17  70 W10G20    29.81R WCI  16
$$

KYZ035>037-039>044-047>052-055>060-089>105-090300-
NORTHEAST KENTUCKY

CITY           SKY/WX    TMP DP  RH WIND       PRES   REMARKS
LEXINGTON      LGT SNOW  27  24  89 W16G29    29.77R FOG     WCI  15
COVINGTON      LGT SNOW  26  24  92 W14       29.73R FOG     WCI  14
FRANKFORT      LGT SNOW  27  22  81 W8G21     29.77S WCI  19
$$

KYZ054-064>069-076>088-106>120-090300-
SOUTHEAST KENTUCKY

CITY           SKY/WX    TMP DP  RH WIND       PRES   REMARKS
JACKSON        CLOUDY    31  26  82 W7        29.71S WCI  24
LONDON         LGT SNOW  30  26  85 W15       29.76R FOG     WCI  19
SOMERSET       NOT AVBL
MIDDLESBORO    NOT AVBL
MONTICELLO     FLURRIES  29  25  85 W17G24    29.83S WCI  17
$$





USA.gov is the U.S. government's official web portal to all federal, state and local government web resources and services.